owner,sensor,date,latitude,longitude,air_pressure(mBar),qcFlag 
TABS,ioos:station:wmo:42046:1,2016-05-01T19:30:00Z,27.8903,-94.0367,1010.0,11111222 
TABS,ioos:station:wmo:42046:1,2016-05-01T20:00:00Z,27.8903,-94.0367,1009.5,11111222 
TABS,ioos:station:wmo:42046:1,2016-05-01T20:30:00Z,27.8903,-94.0367,1009.3,11111222 
TABS,ioos:station:wmo:42046:1,2016-05-01T21:00:00Z,27.8903,-94.0367,1009.1,11111222 
TABS,ioos:station:wmo:42046:1,2016-05-01T21:30:00Z,27.8903,-94.0367,1009.0,11111222 
TABS,ioos:station:wmo:42046:1,2016-05-01T22:00:00Z,27.8903,-94.0367,1009.0,11111222 
TABS,ioos:station:wmo:42046:1,2016-05-01T22:30:00Z,27.8903,-94.0367,1009.2,11111222 
TABS,ioos:station:wmo:42046:1,2016-05-01T23:00:00Z,27.8903,-94.0367,1009.3,11111222 
TABS,ioos:station:wmo:42046:1,2016-05-01T23:30:00Z,27.8903,-94.0367,1009.2,11111222 
TABS,ioos:station:wmo:42046:1,2016-05-02T00:00:00Z,27.8903,-94.0367,1009.52,11111222 
TABS,ioos:station:wmo:42046:1,2016-05-02T00:30:00Z,27.8903,-94.0367,1009.98,11111222 
TABS,ioos:station:wmo:42046:1,2016-05-02T01:00:00Z,27.8903,-94.0367,1010.43,11111222 
TABS,ioos:station:wmo:42046:1,2016-05-02T01:30:00Z,27.8903,-94.0367,1010.74,11111222 
TABS,ioos:station:wmo:42046:1,2016-05-02T02:00:00Z,27.8903,-94.0367,1010.96,11111222 
TABS,ioos:station:wmo:42046:1,2016-05-02T02:30:00Z,27.8903,-94.0367,1011.26,11111222 
TABS,ioos:station:wmo:42046:1,2016-05-02T03:00:00Z,27.8903,-94.0367,1011.75,11111222 
TABS,ioos:station:wmo:42046:1,2016-05-02T03:30:00Z,27.8903,-94.0367,1011.77,11111222 
TABS,ioos:station:wmo:42046:1,2016-05-02T04:00:00Z,27.8903,-94.0367,1012.35,11111222 
TABS,ioos:station:wmo:42046:1,2016-05-02T04:30:00Z,27.8903,-94.0367,1012.48,11111222 
TABS,ioos:station:wmo:42046:1,2016-05-02T05:00:00Z,27.8903,-94.0367,1012.11,11111222 
TABS,ioos:station:wmo:42046:1,2016-05-02T05:30:00Z,27.8903,-94.0367,1012.62,11111222 
TABS,ioos:station:wmo:42046:1,2016-05-02T06:00:00Z,27.8903,-94.0367,1012.03,11111222 
TABS,ioos:station:wmo:42046:1,2016-05-02T06:30:00Z,27.8903,-94.0367,1011.86,11111222 
TABS,ioos:station:wmo:42046:1,2016-05-02T07:00:00Z,27.8903,-94.0367,1011.68,11111222 
TABS,ioos:station:wmo:42046:1,2016-05-02T07:30:00Z,27.8903,-94.0367,1011.4,11111222 
TABS,ioos:station:wmo:42046:1,2016-05-02T08:00:00Z,27.8903,-94.0367,1011.15,11111222 
TABS,ioos:station:wmo:42046:1,2016-05-02T08:30:00Z,27.8903,-94.0367,1011.1,11111222 
TABS,ioos:station:wmo:42046:1,2016-05-02T09:00:00Z,27.8903,-94.0367,1010.93,11111222 
TABS,ioos:station:wmo:42046:1,2016-05-02T09:30:00Z,27.8903,-94.0367,1011.11,11111222 
TABS,ioos:station:wmo:42046:1,2016-05-02T10:00:00Z,27.8903,-94.0367,1011.27,11111222 
TABS,ioos:station:wmo:42046:1,2016-05-02T10:30:00Z,27.8903,-94.0367,1011.35,11111222 
TABS,ioos:station:wmo:42046:1,2016-05-02T11:00:00Z,27.8903,-94.0367,1011.87,11111222 
TABS,ioos:station:wmo:42046:1,2016-05-02T11:30:00Z,27.8903,-94.0367,1011.88,11111222 
TABS,ioos:station:wmo:42046:1,2016-05-02T12:00:00Z,27.8903,-94.0367,1011.69,11111222 
TABS,ioos:station:wmo:42046:1,2016-05-02T12:30:00Z,27.8903,-94.0367,1011.63,11111222 
TABS,ioos:station:wmo:42046:1,2016-05-02T13:00:00Z,27.8903,-94.0367,1012.27,11111222 
TABS,ioos:station:wmo:42046:1,2016-05-02T13:30:00Z,27.8903,-94.0367,1013.19,11111222 
TABS,ioos:station:wmo:42046:1,2016-05-02T14:00:00Z,27.8903,-94.0367,1013.42,11111222 
TABS,ioos:station:wmo:42046:1,2016-05-02T14:30:00Z,27.8903,-94.0367,1013.26,11111222 
TABS,ioos:station:wmo:42046:1,2016-05-02T15:00:00Z,27.8903,-94.0367,1012.99,11111222 
TABS,ioos:station:wmo:42046:1,2016-05-02T15:30:00Z,27.8903,-94.0367,1013.13,11111222 
TABS,ioos:station:wmo:42046:1,2016-05-02T16:00:00Z,27.8903,-94.0367,1013.46,11111222 
TABS,ioos:station:wmo:42046:1,2016-05-02T16:30:00Z,27.8903,-94.0367,1013.88,11111222 
TABS,ioos:station:wmo:42046:1,2016-05-02T17:00:00Z,27.8903,-94.0367,1013.71,11111222 
TABS,ioos:station:wmo:42046:1,2016-05-02T17:30:00Z,27.8903,-94.0367,1014.18,11111222 
TABS,ioos:station:wmo:42046:1,2016-05-02T18:00:00Z,27.8903,-94.0367,1013.5,11111222 
TABS,ioos:station:wmo:42046:1,2016-05-02T18:30:00Z,27.8903,-94.0367,1013.62,11111222 
TABS,ioos:station:wmo:42046:1,2016-05-02T19:00:00Z,27.8903,-94.0367,1013.65,11111222 
TABS,ioos:station:wmo:42046:1,2016-05-02T19:30:00Z,27.8903,-94.0367,1013.23,11111222 
TABS,ioos:station:wmo:42046:1,2016-05-02T20:00:00Z,27.8903,-94.0367,1012.95,11111222 
TABS,ioos:station:wmo:42046:1,2016-05-02T20:30:00Z,27.8903,-94.0367,1012.48,11111222 
TABS,ioos:station:wmo:42046:1,2016-05-02T21:00:00Z,27.8903,-94.0367,1012.71,11111222 
TABS,ioos:station:wmo:42046:1,2016-05-02T21:30:00Z,27.8903,-94.0367,1012.26,11111222 
TABS,ioos:station:wmo:42046:1,2016-05-02T22:00:00Z,27.8903,-94.0367,1012.39,11111222 
TABS,ioos:station:wmo:42046:1,2016-05-02T22:30:00Z,27.8903,-94.0367,1012.72,11111222 
TABS,ioos:station:wmo:42046:1,2016-05-02T23:00:00Z,27.8903,-94.0367,1013.23,11111222 
TABS,ioos:station:wmo:42046:1,2016-05-02T23:30:00Z,27.8903,-94.0367,1013.49,11111222 
TABS,ioos:station:wmo:42046:1,2016-05-03T00:00:00Z,27.8903,-94.0367,1013.44,11111222 
TABS,ioos:station:wmo:42046:1,2016-05-03T00:30:00Z,27.8903,-94.0367,1013.98,11111222 
TABS,ioos:station:wmo:42046:1,2016-05-03T01:00:00Z,27.8903,-94.0367,1014.11,11111222 
TABS,ioos:station:wmo:42046:1,2016-05-03T01:30:00Z,27.8903,-94.0367,1014.42,11111222 
TABS,ioos:station:wmo:42046:1,2016-05-03T02:00:00Z,27.8903,-94.0367,1014.8,11111222 
TABS,ioos:station:wmo:42046:1,2016-05-03T02:30:00Z,27.8903,-94.0367,1014.74,11111222 
TABS,ioos:station:wmo:42046:1,2016-05-03T03:00:00Z,27.8903,-94.0367,1015.03,11111222 
TABS,ioos:station:wmo:42046:1,2016-05-03T03:30:00Z,27.8903,-94.0367,1014.92,11111222 
TABS,ioos:station:wmo:42046:1,2016-05-03T04:00:00Z,27.8903,-94.0367,1015.01,11111222 
TABS,ioos:station:wmo:42046:1,2016-05-03T04:30:00Z,27.8903,-94.0367,1015.15,11111222 
TABS,ioos:station:wmo:42046:1,2016-05-03T05:00:00Z,27.8903,-94.0367,1015.16,11111222 
TABS,ioos:station:wmo:42046:1,2016-05-03T05:30:00Z,27.8903,-94.0367,1014.58,11111222 
TABS,ioos:station:wmo:42046:1,2016-05-03T06:00:00Z,27.8903,-94.0367,1014.29,11111222 
TABS,ioos:station:wmo:42046:1,2016-05-03T06:30:00Z,27.8903,-94.0367,1014.31,11111222 
TABS,ioos:station:wmo:42046:1,2016-05-03T07:00:00Z,27.8903,-94.0367,1013.92,11111222 
TABS,ioos:station:wmo:42046:1,2016-05-03T07:30:00Z,27.8903,-94.0367,1013.94,11111222 
TABS,ioos:station:wmo:42046:1,2016-05-03T08:00:00Z,27.8903,-94.0367,1014.23,11111222 
TABS,ioos:station:wmo:42046:1,2016-05-03T08:30:00Z,27.8903,-94.0367,1014.05,11111222 
TABS,ioos:station:wmo:42046:1,2016-05-03T09:00:00Z,27.8903,-94.0367,1013.81,11111222 
TABS,ioos:station:wmo:42046:1,2016-05-03T09:30:00Z,27.8903,-94.0367,1013.74,11111222 
TABS,ioos:station:wmo:42046:1,2016-05-03T10:00:00Z,27.8903,-94.0367,1013.63,11111222 
TABS,ioos:station:wmo:42046:1,2016-05-03T10:30:00Z,27.8903,-94.0367,1013.82,11111222 
TABS,ioos:station:wmo:42046:1,2016-05-03T11:00:00Z,27.8903,-94.0367,1013.86,11111222 
TABS,ioos:station:wmo:42046:1,2016-05-03T11:30:00Z,27.8903,-94.0367,1014.06,11111222 
TABS,ioos:station:wmo:42046:1,2016-05-03T12:00:00Z,27.8903,-94.0367,1014.67,11111222 
TABS,ioos:station:wmo:42046:1,2016-05-03T12:30:00Z,27.8903,-94.0367,1014.8,11111222 
TABS,ioos:station:wmo:42046:1,2016-05-03T13:00:00Z,27.8903,-94.0367,1015.24,11111222 
TABS,ioos:station:wmo:42046:1,2016-05-03T13:30:00Z,27.8903,-94.0367,1015.9,11111222 
TABS,ioos:station:wmo:42046:1,2016-05-03T14:00:00Z,27.8903,-94.0367,1016.38,11111222 
TABS,ioos:station:wmo:42046:1,2016-05-03T14:30:00Z,27.8903,-94.0367,1016.45,11111222 
TABS,ioos:station:wmo:42046:1,2016-05-03T15:00:00Z,27.8903,-94.0367,1016.46,11111222 
TABS,ioos:station:wmo:42046:1,2016-05-03T15:30:00Z,27.8903,-94.0367,1016.47,11111222 
TABS,ioos:station:wmo:42046:1,2016-05-03T16:00:00Z,27.8903,-94.0367,1016.53,11111222 
TABS,ioos:station:wmo:42046:1,2016-05-03T16:30:00Z,27.8903,-94.0367,1016.75,11111222 
TABS,ioos:station:wmo:42046:1,2016-05-03T17:00:00Z,27.8903,-94.0367,1016.35,11111222 
TABS,ioos:station:wmo:42046:1,2016-05-03T17:30:00Z,27.8903,-94.0367,1016.17,11111222 
TABS,ioos:station:wmo:42046:1,2016-05-03T18:00:00Z,27.8903,-94.0367,1015.59,11111222 
TABS,ioos:station:wmo:42046:1,2016-05-03T18:30:00Z,27.8903,-94.0367,1015.38,11111222 
TABS,ioos:station:wmo:42046:1,2016-05-03T19:00:00Z,27.8903,-94.0367,1014.61,11111222 
TABS,ioos:station:wmo:42046:1,2016-05-03T19:30:00Z,27.8903,-94.0367,1014.76,11111222 
TABS,ioos:station:wmo:42046:1,2016-05-03T20:00:00Z,27.8903,-94.0367,1014.34,11111222 
TABS,ioos:station:wmo:42046:1,2016-05-03T20:30:00Z,27.8903,-94.0367,1014.3,11111222 
TABS,ioos:station:wmo:42046:1,2016-05-03T21:00:00Z,27.8903,-94.0367,1013.98,11111222 
TABS,ioos:station:wmo:42046:1,2016-05-03T21:30:00Z,27.8903,-94.0367,1014.44,11111222 
TABS,ioos:station:wmo:42046:1,2016-05-03T22:00:00Z,27.8903,-94.0367,1014.45,11111222 
TABS,ioos:station:wmo:42046:1,2016-05-03T22:30:00Z,27.8903,-94.0367,1014.39,11111222 
TABS,ioos:station:wmo:42046:1,2016-05-03T23:00:00Z,27.8903,-94.0367,1014.48,11111222 
TABS,ioos:station:wmo:42046:1,2016-05-03T23:30:00Z,27.8903,-94.0367,1014.59,11111222 
TABS,ioos:station:wmo:42046:1,2016-05-04T00:00:00Z,27.8903,-94.0367,1014.81,11111222 
TABS,ioos:station:wmo:42046:1,2016-05-04T00:30:00Z,27.8903,-94.0367,1014.87,11111222 
TABS,ioos:station:wmo:42046:1,2016-05-04T01:00:00Z,27.8903,-94.0367,1015.1,11111222 
TABS,ioos:station:wmo:42046:1,2016-05-04T01:30:00Z,27.8903,-94.0367,1015.29,11111222 
TABS,ioos:station:wmo:42046:1,2016-05-04T02:00:00Z,27.8903,-94.0367,1015.66,11111222 
TABS,ioos:station:wmo:42046:1,2016-05-04T02:30:00Z,27.8903,-94.0367,1016.17,11111222 
TABS,ioos:station:wmo:42046:1,2016-05-04T03:00:00Z,27.8903,-94.0367,1016.5,11111222 
TABS,ioos:station:wmo:42046:1,2016-05-04T03:30:00Z,27.8903,-94.0367,1016.46,11111222 
TABS,ioos:station:wmo:42046:1,2016-05-04T04:00:00Z,27.8903,-94.0367,1016.37,11111222 
TABS,ioos:station:wmo:42046:1,2016-05-04T04:30:00Z,27.8903,-94.0367,1016.31,11111222 
TABS,ioos:station:wmo:42046:1,2016-05-04T05:00:00Z,27.8903,-94.0367,1016.45,11111222 
TABS,ioos:station:wmo:42046:1,2016-05-04T05:30:00Z,27.8903,-94.0367,1016.2,11111222 
TABS,ioos:station:wmo:42046:1,2016-05-04T06:00:00Z,27.8903,-94.0367,1015.91,11111222 
TABS,ioos:station:wmo:42046:1,2016-05-04T06:30:00Z,27.8903,-94.0367,1015.41,11111222 
TABS,ioos:station:wmo:42046:1,2016-05-04T07:00:00Z,27.8903,-94.0367,1015.07,11111222 
TABS,ioos:station:wmo:42046:1,2016-05-04T07:30:00Z,27.8903,-94.0367,1015.19,11111222 
TABS,ioos:station:wmo:42046:1,2016-05-04T08:00:00Z,27.8903,-94.0367,1015.16,11111222 
TABS,ioos:station:wmo:42046:1,2016-05-04T08:30:00Z,27.8903,-94.0367,1015.26,11111222 
TABS,ioos:station:wmo:42046:1,2016-05-04T09:00:00Z,27.8903,-94.0367,1015.27,11111222 
TABS,ioos:station:wmo:42046:1,2016-05-04T09:30:00Z,27.8903,-94.0367,1015.58,11111222 
TABS,ioos:station:wmo:42046:1,2016-05-04T10:00:00Z,27.8903,-94.0367,1015.68,11111222 
TABS,ioos:station:wmo:42046:1,2016-05-04T10:30:00Z,27.8903,-94.0367,1015.79,11111222 
TABS,ioos:station:wmo:42046:1,2016-05-04T11:00:00Z,27.8903,-94.0367,1016.06,11111222 
TABS,ioos:station:wmo:42046:1,2016-05-04T11:30:00Z,27.8903,-94.0367,1016.22,11111222 
TABS,ioos:station:wmo:42046:1,2016-05-04T12:00:00Z,27.8903,-94.0367,1016.55,11111222 
TABS,ioos:station:wmo:42046:1,2016-05-04T12:30:00Z,27.8903,-94.0367,1017.02,11111222 
TABS,ioos:station:wmo:42046:1,2016-05-04T13:00:00Z,27.8903,-94.0367,1017.07,11111222 
TABS,ioos:station:wmo:42046:1,2016-05-04T13:30:00Z,27.8903,-94.0367,1017.26,11111222 
TABS,ioos:station:wmo:42046:1,2016-05-04T14:00:00Z,27.8903,-94.0367,1017.46,11111222 
TABS,ioos:station:wmo:42046:1,2016-05-04T14:30:00Z,27.8903,-94.0367,1017.65,11111222 
TABS,ioos:station:wmo:42046:1,2016-05-04T15:00:00Z,27.8903,-94.0367,1017.82,11111222 
TABS,ioos:station:wmo:42046:1,2016-05-04T15:30:00Z,27.8903,-94.0367,1017.88,11111222 
TABS,ioos:station:wmo:42046:1,2016-05-04T16:00:00Z,27.8903,-94.0367,1018.14,11111222 
TABS,ioos:station:wmo:42046:1,2016-05-04T16:30:00Z,27.8903,-94.0367,1018.09,11111222 
TABS,ioos:station:wmo:42046:1,2016-05-04T17:00:00Z,27.8903,-94.0367,1017.83,11111222 
TABS,ioos:station:wmo:42046:1,2016-05-04T17:30:00Z,27.8903,-94.0367,1017.66,11111222 
TABS,ioos:station:wmo:42046:1,2016-05-04T18:00:00Z,27.8903,-94.0367,1017.48,11111222 
TABS,ioos:station:wmo:42046:1,2016-05-04T18:30:00Z,27.8903,-94.0367,1017.07,11111222 
TABS,ioos:station:wmo:42046:1,2016-05-04T19:00:00Z,27.8903,-94.0367,1016.86,11111222 
TABS,ioos:station:wmo:42046:1,2016-05-04T19:30:00Z,27.8903,-94.0367,1016.66,11111222 
TABS,ioos:station:wmo:42046:1,2016-05-04T20:00:00Z,27.8903,-94.0367,1016.44,11111222 
TABS,ioos:station:wmo:42046:1,2016-05-04T20:30:00Z,27.8903,-94.0367,1016.15,11111222 
TABS,ioos:station:wmo:42046:1,2016-05-04T21:00:00Z,27.8903,-94.0367,1015.81,11111222 
TABS,ioos:station:wmo:42046:1,2016-05-04T21:30:00Z,27.8903,-94.0367,1015.75,11111222 
TABS,ioos:station:wmo:42046:1,2016-05-04T22:00:00Z,27.8903,-94.0367,1015.69,11111222 
TABS,ioos:station:wmo:42046:1,2016-05-04T22:30:00Z,27.8903,-94.0367,1015.48,11111222 
TABS,ioos:station:wmo:42046:1,2016-05-04T23:00:00Z,27.8903,-94.0367,1015.54,11111222 
TABS,ioos:station:wmo:42046:1,2016-05-04T23:30:00Z,27.8903,-94.0367,1015.6,11111222 
TABS,ioos:station:wmo:42046:1,2016-05-05T00:00:00Z,27.8903,-94.0367,1015.21,11111222 
TABS,ioos:station:wmo:42046:1,2016-05-05T00:30:00Z,27.8903,-94.0367,1015.08,11111222 
TABS,ioos:station:wmo:42046:1,2016-05-05T01:00:00Z,27.8903,-94.0367,1015.11,11111222 
TABS,ioos:station:wmo:42046:1,2016-05-05T01:30:00Z,27.8903,-94.0367,1015.35,11111222 
TABS,ioos:station:wmo:42046:1,2016-05-05T02:00:00Z,27.8903,-94.0367,1015.42,11111222 
TABS,ioos:station:wmo:42046:1,2016-05-05T02:30:00Z,27.8903,-94.0367,1015.66,11111222 
TABS,ioos:station:wmo:42046:1,2016-05-05T03:00:00Z,27.8903,-94.0367,1015.74,11111222 
TABS,ioos:station:wmo:42046:1,2016-05-05T03:30:00Z,27.8903,-94.0367,1015.77,11111222 
TABS,ioos:station:wmo:42046:1,2016-05-05T04:00:00Z,27.8903,-94.0367,1015.84,11111222 
TABS,ioos:station:wmo:42046:1,2016-05-05T04:30:00Z,27.8903,-94.0367,1015.95,11111222 
TABS,ioos:station:wmo:42046:1,2016-05-05T05:00:00Z,27.8903,-94.0367,1015.82,11111222 
TABS,ioos:station:wmo:42046:1,2016-05-05T05:30:00Z,27.8903,-94.0367,1015.7,11111222 
TABS,ioos:station:wmo:42046:1,2016-05-05T06:00:00Z,27.8903,-94.0367,1015.55,11111222 
TABS,ioos:station:wmo:42046:1,2016-05-05T06:30:00Z,27.8903,-94.0367,1015.49,11111222 
TABS,ioos:station:wmo:42046:1,2016-05-05T07:00:00Z,27.8903,-94.0367,1015.39,11111222 
TABS,ioos:station:wmo:42046:1,2016-05-05T07:30:00Z,27.8903,-94.0367,1015.34,11111222 
TABS,ioos:station:wmo:42046:1,2016-05-05T08:00:00Z,27.8903,-94.0367,1015.29,11111222 
TABS,ioos:station:wmo:42046:1,2016-05-05T08:30:00Z,27.8903,-94.0367,1015.36,11111222 
TABS,ioos:station:wmo:42046:1,2016-05-05T09:00:00Z,27.8903,-94.0367,1015.33,11111222 
TABS,ioos:station:wmo:42046:1,2016-05-05T09:30:00Z,27.8903,-94.0367,1015.45,11111222 
TABS,ioos:station:wmo:42046:1,2016-05-05T10:00:00Z,27.8903,-94.0367,1015.52,11111222 
TABS,ioos:station:wmo:42046:1,2016-05-05T10:30:00Z,27.8903,-94.0367,1015.65,11111222 
TABS,ioos:station:wmo:42046:1,2016-05-05T11:00:00Z,27.8903,-94.0367,1015.72,11111222 
TABS,ioos:station:wmo:42046:1,2016-05-05T11:30:00Z,27.8903,-94.0367,1015.86,11111222 
TABS,ioos:station:wmo:42046:1,2016-05-05T12:00:00Z,27.8903,-94.0367,1016.02,11111222 
TABS,ioos:station:wmo:42046:1,2016-05-05T12:30:00Z,27.8903,-94.0367,1016.34,11111222 
TABS,ioos:station:wmo:42046:1,2016-05-05T13:00:00Z,27.8903,-94.0367,1016.59,11111222 
TABS,ioos:station:wmo:42046:1,2016-05-05T13:30:00Z,27.8903,-94.0367,1016.62,11111222 
TABS,ioos:station:wmo:42046:1,2016-05-05T14:00:00Z,27.8903,-94.0367,1016.94,11111222 
TABS,ioos:station:wmo:42046:1,2016-05-05T14:30:00Z,27.8903,-94.0367,1017.08,11111222 
TABS,ioos:station:wmo:42046:1,2016-05-05T15:00:00Z,27.8903,-94.0367,1017.24,11111222 
TABS,ioos:station:wmo:42046:1,2016-05-05T15:30:00Z,27.8903,-94.0367,1017.36,11111222 
TABS,ioos:station:wmo:42046:1,2016-05-05T16:00:00Z,27.8903,-94.0367,1017.14,11111222 
TABS,ioos:station:wmo:42046:1,2016-05-05T16:30:00Z,27.8903,-94.0367,1017.11,11111222 
TABS,ioos:station:wmo:42046:1,2016-05-05T17:00:00Z,27.8903,-94.0367,1017.1,11111222 
TABS,ioos:station:wmo:42046:1,2016-05-05T17:30:00Z,27.8903,-94.0367,1016.84,11111222 
TABS,ioos:station:wmo:42046:1,2016-05-05T18:00:00Z,27.8903,-94.0367,1016.64,11111222 
TABS,ioos:station:wmo:42046:1,2016-05-05T18:30:00Z,27.8903,-94.0367,1016.15,11111222 
TABS,ioos:station:wmo:42046:1,2016-05-05T19:00:00Z,27.8903,-94.0367,1015.88,11111222 
TABS,ioos:station:wmo:42046:1,2016-05-05T19:30:00Z,27.8903,-94.0367,1015.58,11111222 
TABS,ioos:station:wmo:42046:1,2016-05-05T20:00:00Z,27.8903,-94.0367,1015.27,11111222 
TABS,ioos:station:wmo:42046:1,2016-05-05T20:30:00Z,27.8903,-94.0367,1014.86,11111222 
TABS,ioos:station:wmo:42046:1,2016-05-05T21:00:00Z,27.8903,-94.0367,1014.74,11111222 
TABS,ioos:station:wmo:42046:1,2016-05-05T21:30:00Z,27.8903,-94.0367,1014.45,11111222 
TABS,ioos:station:wmo:42046:1,2016-05-05T22:00:00Z,27.8903,-94.0367,1014.59,11111222 
TABS,ioos:station:wmo:42046:1,2016-05-05T22:30:00Z,27.8903,-94.0367,1014.43,11111222 
TABS,ioos:station:wmo:42046:1,2016-05-05T23:00:00Z,27.8903,-94.0367,1014.4,11111222 
TABS,ioos:station:wmo:42046:1,2016-05-05T23:30:00Z,27.8903,-94.0367,1014.44,11111222 
TABS,ioos:station:wmo:42046:1,2016-05-06T00:00:00Z,27.8903,-94.0367,1014.2,11111222 
TABS,ioos:station:wmo:42046:1,2016-05-06T00:30:00Z,27.8903,-94.0367,1014.24,11111222 
TABS,ioos:station:wmo:42046:1,2016-05-06T01:00:00Z,27.8903,-94.0367,1014.59,11111222 
TABS,ioos:station:wmo:42046:1,2016-05-06T01:30:00Z,27.8903,-94.0367,1014.91,11111222 
TABS,ioos:station:wmo:42046:1,2016-05-06T02:00:00Z,27.8903,-94.0367,1015.12,11111222 
TABS,ioos:station:wmo:42046:1,2016-05-06T02:30:00Z,27.8903,-94.0367,1015.59,11111222 
TABS,ioos:station:wmo:42046:1,2016-05-06T03:00:00Z,27.8903,-94.0367,1015.85,11111222 
TABS,ioos:station:wmo:42046:1,2016-05-06T03:30:00Z,27.8903,-94.0367,1015.91,11111222 
TABS,ioos:station:wmo:42046:1,2016-05-06T04:00:00Z,27.8903,-94.0367,1016.15,11111222 
TABS,ioos:station:wmo:42046:1,2016-05-06T04:30:00Z,27.8903,-94.0367,1016.27,11111222 
TABS,ioos:station:wmo:42046:1,2016-05-06T05:00:00Z,27.8903,-94.0367,1016.33,11111222 
TABS,ioos:station:wmo:42046:1,2016-05-06T05:30:00Z,27.8903,-94.0367,1016.22,11111222 
TABS,ioos:station:wmo:42046:1,2016-05-06T06:00:00Z,27.8903,-94.0367,1016.23,11111222 
TABS,ioos:station:wmo:42046:1,2016-05-06T06:30:00Z,27.8903,-94.0367,1016.27,11111222 
TABS,ioos:station:wmo:42046:1,2016-05-06T07:00:00Z,27.8903,-94.0367,1016.07,11111222 
TABS,ioos:station:wmo:42046:1,2016-05-06T07:30:00Z,27.8903,-94.0367,1016.06,11111222 
TABS,ioos:station:wmo:42046:1,2016-05-06T08:00:00Z,27.8903,-94.0367,1015.85,11111222 
TABS,ioos:station:wmo:42046:1,2016-05-06T08:30:00Z,27.8903,-94.0367,1015.6,11111222 
TABS,ioos:station:wmo:42046:1,2016-05-06T09:00:00Z,27.8903,-94.0367,1015.72,11111222 
TABS,ioos:station:wmo:42046:1,2016-05-06T09:30:00Z,27.8903,-94.0367,1015.61,11111222 
TABS,ioos:station:wmo:42046:1,2016-05-06T10:00:00Z,27.8903,-94.0367,1015.8,11111222 
TABS,ioos:station:wmo:42046:1,2016-05-06T10:30:00Z,27.8903,-94.0367,1016.16,11111222 
TABS,ioos:station:wmo:42046:1,2016-05-06T11:00:00Z,27.8903,-94.0367,1016.55,11111222 
TABS,ioos:station:wmo:42046:1,2016-05-06T11:30:00Z,27.8903,-94.0367,1017.01,11111222 
TABS,ioos:station:wmo:42046:1,2016-05-06T12:00:00Z,27.8903,-94.0367,1017.4,11111222 
TABS,ioos:station:wmo:42046:1,2016-05-06T12:30:00Z,27.8903,-94.0367,1017.68,11111222 
TABS,ioos:station:wmo:42046:1,2016-05-06T13:00:00Z,27.8903,-94.0367,1018.04,11111222 
TABS,ioos:station:wmo:42046:1,2016-05-06T13:30:00Z,27.8903,-94.0367,1018.09,11111222 
TABS,ioos:station:wmo:42046:1,2016-05-06T14:00:00Z,27.8903,-94.0367,1017.94,11111222 
TABS,ioos:station:wmo:42046:1,2016-05-06T14:30:00Z,27.8903,-94.0367,1018.23,11111222 
TABS,ioos:station:wmo:42046:1,2016-05-06T15:00:00Z,27.8903,-94.0367,1018.73,11111222 
TABS,ioos:station:wmo:42046:1,2016-05-06T15:30:00Z,27.8903,-94.0367,1019.02,11111222 
TABS,ioos:station:wmo:42046:1,2016-05-06T16:00:00Z,27.8903,-94.0367,1019.22,11111222 
TABS,ioos:station:wmo:42046:1,2016-05-06T16:30:00Z,27.8903,-94.0367,1019.3,11111222 
TABS,ioos:station:wmo:42046:1,2016-05-06T17:00:00Z,27.8903,-94.0367,1019.05,11111222 
TABS,ioos:station:wmo:42046:1,2016-05-06T17:30:00Z,27.8903,-94.0367,1018.84,11111222 
TABS,ioos:station:wmo:42046:1,2016-05-06T18:00:00Z,27.8903,-94.0367,1018.99,11111222 
TABS,ioos:station:wmo:42046:1,2016-05-06T18:30:00Z,27.8903,-94.0367,1018.42,11111222 
TABS,ioos:station:wmo:42046:1,2016-05-06T19:00:00Z,27.8903,-94.0367,1018.17,11111222 
TABS,ioos:station:wmo:42046:1,2016-05-06T19:30:00Z,27.8903,-94.0367,1018.18,11111222 
TABS,ioos:station:wmo:42046:1,2016-05-06T20:00:00Z,27.8903,-94.0367,1018.14,11111222 
TABS,ioos:station:wmo:42046:1,2016-05-06T20:30:00Z,27.8903,-94.0367,1017.79,11111222 
TABS,ioos:station:wmo:42046:1,2016-05-06T21:00:00Z,27.8903,-94.0367,1017.53,11111222 
TABS,ioos:station:wmo:42046:1,2016-05-06T21:30:00Z,27.8903,-94.0367,1017.22,11111222 
TABS,ioos:station:wmo:42046:1,2016-05-06T22:00:00Z,27.8903,-94.0367,1017.03,11111222 
TABS,ioos:station:wmo:42046:1,2016-05-06T22:30:00Z,27.8903,-94.0367,1017.0,11111222 
TABS,ioos:station:wmo:42046:1,2016-05-06T23:00:00Z,27.8903,-94.0367,1016.99,11111222 
TABS,ioos:station:wmo:42046:1,2016-05-06T23:30:00Z,27.8903,-94.0367,1017.1,11111222 
TABS,ioos:station:wmo:42046:1,2016-05-07T00:00:00Z,27.8903,-94.0367,1016.87,11111222 
TABS,ioos:station:wmo:42046:1,2016-05-07T00:30:00Z,27.8903,-94.0367,1016.96,11111222 
TABS,ioos:station:wmo:42046:1,2016-05-07T01:00:00Z,27.8903,-94.0367,1016.92,11111222 
TABS,ioos:station:wmo:42046:1,2016-05-07T01:30:00Z,27.8903,-94.0367,1017.32,11111222 
TABS,ioos:station:wmo:42046:1,2016-05-07T02:00:00Z,27.8903,-94.0367,1017.45,11111222 
TABS,ioos:station:wmo:42046:1,2016-05-07T02:30:00Z,27.8903,-94.0367,1017.72,11111222 
TABS,ioos:station:wmo:42046:1,2016-05-07T03:00:00Z,27.8903,-94.0367,1017.82,11111222 
TABS,ioos:station:wmo:42046:1,2016-05-07T03:30:00Z,27.8903,-94.0367,1017.84,11111222 
TABS,ioos:station:wmo:42046:1,2016-05-07T04:00:00Z,27.8903,-94.0367,1017.86,11111222 
TABS,ioos:station:wmo:42046:1,2016-05-07T04:30:00Z,27.8903,-94.0367,1017.92,11111222 
TABS,ioos:station:wmo:42046:1,2016-05-07T05:00:00Z,27.8903,-94.0367,1017.8,11111222 
TABS,ioos:station:wmo:42046:1,2016-05-07T05:30:00Z,27.8903,-94.0367,1017.76,11111222 
TABS,ioos:station:wmo:42046:1,2016-05-07T06:00:00Z,27.8903,-94.0367,1017.55,11111222 
TABS,ioos:station:wmo:42046:1,2016-05-07T06:30:00Z,27.8903,-94.0367,1017.17,11111222 
TABS,ioos:station:wmo:42046:1,2016-05-07T07:00:00Z,27.8903,-94.0367,1016.81,11111222 
TABS,ioos:station:wmo:42046:1,2016-05-07T07:30:00Z,27.8903,-94.0367,1016.83,11111222 
TABS,ioos:station:wmo:42046:1,2016-05-07T08:00:00Z,27.8903,-94.0367,1016.72,11111222 
TABS,ioos:station:wmo:42046:1,2016-05-07T08:30:00Z,27.8903,-94.0367,1016.53,11111222 
TABS,ioos:station:wmo:42046:1,2016-05-07T09:00:00Z,27.8903,-94.0367,1016.54,11111222 
TABS,ioos:station:wmo:42046:1,2016-05-07T09:30:00Z,27.8903,-94.0367,1016.52,11111222 
TABS,ioos:station:wmo:42046:1,2016-05-07T10:00:00Z,27.8903,-94.0367,1016.54,11111222 
TABS,ioos:station:wmo:42046:1,2016-05-07T10:30:00Z,27.8903,-94.0367,1016.65,11111222 
TABS,ioos:station:wmo:42046:1,2016-05-07T11:00:00Z,27.8903,-94.0367,1016.96,11111222 
TABS,ioos:station:wmo:42046:1,2016-05-07T11:30:00Z,27.8903,-94.0367,1017.32,11111222 
TABS,ioos:station:wmo:42046:1,2016-05-07T12:00:00Z,27.8903,-94.0367,1017.56,11111222 
TABS,ioos:station:wmo:42046:1,2016-05-07T12:30:00Z,27.8903,-94.0367,1017.82,11111222 
TABS,ioos:station:wmo:42046:1,2016-05-07T13:00:00Z,27.8903,-94.0367,1018.11,11111222 
TABS,ioos:station:wmo:42046:1,2016-05-07T13:30:00Z,27.8903,-94.0367,1018.32,11111222 
TABS,ioos:station:wmo:42046:1,2016-05-07T14:00:00Z,27.8903,-94.0367,1018.6,11111222 